User: anonymous   Login
Location: Unspecified
(0.0000°N, 0.0000°E)
Time: 08:59:10
(UTC+00:00)
Language:

STARLINK-35440 - Orbit

View from above orbital plane
View from above orbital plane
View from above satellite
View from above satellite

Ground track
Ground track

The orbit is defined by the following mean orbital elements,

1 66345U          26145.32499559 +.00000000 +00000-0 +52016-3 0 00008
2 66345  43.0000 139.8087 0001515 267.3037  92.7641 15.27594695    01
Epoch (UTC): 25 May 2026 07:47:59
Eccentricity: 0.0001515
inclination: 43.0000°
perigee height: 482 km
apogee height: 484 km
right ascension of ascending node: 139.8087°
argument of perigee: 267.3037°
revolutions per day: 15.27594695
mean anomaly at epoch: 92.7641°

The dashed part of the orbit path shows where the satellite is in the earth's shadow,  

DLR